Location: Innsbruck
(47.2657°N, 11.3914°E)
Time: 03:13:43
(UTC+02:00)

Envisat - Pass Details

Date: 07 February 2023
Orbit: 763 x 765 km, 98.2° (Epoch: 28 March)

Event Time Altitude Azimuth Distance (km) Brightness Sun altitude
Rises 04:12:35 0° 16° (NNE) 3,244 6.6 -34.1°
Reaches altitude 10° 04:14:56 10° 19° (NNE) 2,313 5.8 -33.7°
Enters shadow 04:17:28 29° 28° (NNE) 1,371 4.5 -33.3°
